Flag for U.S.A. Weather past 2 weeks in Paramus, New Jersey, U.S.A.

Now
68 °F

More clouds than sun.


Feels Like: 68 °F
Forecast: 61 / 76 °F
Wind: 8 mph from East

Location: Teterboro Airport

Current Time: Sep 30, 2014 at 10:26:38 AM

Latest Report: Sep 30, 2014 at 9:51 AM


Visibility: 8 mi

Pressure: 29.95 "Hg

Humidity: 78%

Dew point: 61 °F

Location of ParamusLocation

Historic Weather in Paramus — Graph

°F

Paramus temperature yesterday

Maximum temperature yesterday: 78 °F (at 11:51 AM)
Minimum temperature yesterday: 65 °F (at 2:51 AM)
Average temperature yesterday: 72 °F

Past Weeks' High & Low Weather Summary

 TemperatureHumidityPressure
High87 °F (Sep 28, 3:51 PM)94% (Sep 21, 6:00 AM)30.55 "Hg (Sep 21, 6:00 AM)
Low47 °F (Sep 23, 3:51 AM)26% (Sep 18, 4:51 PM)29.60 "Hg (Sep 21, 6:51 PM)
Average66 °F62%30.11 "Hg
* Reported Sep 15 8:51 AM — Sep 30 8:51 AM, Paramus, Weather by CustomWeather, © 2014

Note: Actual official high and low records may vary slightly from our data, if they occured in-between our weather recording intervals... More about our weather records

Advertising

Paramus weather history for previous 24 hours

 ConditionsComfort  
Time TempWeatherWind HumidityBarometerVisibility
8:51 AM
Sep 30
68 °FOvercast.7 mph82%29.96 "Hg7 mi
7:51 AM69 °FOvercast.No wind76%29.95 "Hg8 mi
6:51 AM66 °FOvercast.3 mph81%29.93 "Hg10 mi
5:51 AM66 °FOvercast.No wind78%29.91 "Hg10 mi
4:51 AM67 °FOvercast.No wind76%29.91 "Hg10 mi
3:51 AM67 °FPassing clouds.No wind76%29.91 "Hg10 mi
2:51 AM66 °FPassing clouds.No wind78%29.91 "Hg10 mi
1:51 AM68 °FOvercast.No wind73%29.92 "Hg10 mi
12:51 AM68 °FOvercast.No wind76%29.91 "Hg10 mi
11:51 PM
Sep 29
69 °FPassing clouds.5 mph76%29.92 "Hg10 mi
10:51 PM71 °FLight rain. Passing clouds.No wind66%29.92 "Hg10 mi
9:51 PM71 °FClear.No wind68%29.92 "Hg10 mi
8:51 PM73 °FClear.No wind64%29.91 "Hg10 mi
7:51 PM72 °FClear.6 mph66%29.91 "Hg10 mi
6:51 PM73 °FLight rain. Partly sunny.7 mph64%29.90 "Hg10 mi
5:51 PM77 °FPartly sunny.No wind48%29.90 "Hg10 mi
4:51 PM78 °FSunny.5 mph46%29.89 "Hg10 mi
3:51 PM78 °FSunny.5 mph46%29.90 "Hg10 mi
2:51 PM78 °FSunny.3 mph46%29.91 "Hg10 mi
1:51 PM78 °FSunny.5 mph48%29.93 "Hg10 mi
12:51 PM78 °FSunny.5 mph48%29.94 "Hg10 mi
11:51 AM78 °FSunny.3 mph48%29.94 "Hg10 mi
10:51 AM75 °FSunny.No wind52%29.96 "Hg10 mi
Weather by CustomWeather, © 2014

See weather overviewHow to use our weather pages